TimeCDT,TemperatureF,Dew PointF,Humidity,Sea Level PressureIn,VisibilityMPH,Wind Direction,Wind SpeedMPH,Gust SpeedMPH,PrecipitationIn,Events,Conditions,WindDirDegrees,DateUTC
12:12 AM,41.9,29.1,61,30.25,10.0,WNW,13.8,19.6,N/A,,Overcast,290,2012-10-05 05:12:00
12:32 AM,41.9,27.3,56,30.25,10.0,West,16.1,23.0,N/A,,Overcast,280,2012-10-05 05:32:00
12:52 AM,41.7,26.6,55,30.25,10.0,WNW,17.3,23.0,N/A,,Overcast,290,2012-10-05 05:52:00
1:12 AM,41.0,23.9,51,30.24,10.0,WNW,13.8,23.0,N/A,,Overcast,290,2012-10-05 06:12:00
1:32 AM,40.5,24.3,52,30.24,10.0,West,15.0,18.4,N/A,,Overcast,270,2012-10-05 06:32:00
1:52 AM,36.5,24.8,63,30.25,10.0,West,11.5,-,N/A,,Scattered Clouds,260,2012-10-05 06:52:00
2:12 AM,34.7,24.3,66,30.25,10.0,West,11.5,-,N/A,,Clear,260,2012-10-05 07:12:00
2:32 AM,33.4,24.1,69,30.24,10.0,WSW,9.2,-,N/A,,Clear,250,2012-10-05 07:32:00
3:12 AM,31.1,23.7,74,30.23,10.0,WSW,8.1,-,N/A,,Clear,250,2012-10-05 08:12:00
3:32 AM,30.6,23.4,75,30.23,10.0,WSW,6.9,-,N/A,,Clear,240,2012-10-05 08:32:00
3:52 AM,28.2,22.5,79,30.23,10.0,WSW,6.9,-,N/A,,Clear,240,2012-10-05 08:52:00
4:12 AM,28.8,23.4,80,30.23,10.0,West,8.1,-,N/A,,Clear,260,2012-10-05 09:12:00
4:32 AM,28.9,23.5,80,30.23,10.0,West,8.1,-,N/A,,Clear,270,2012-10-05 09:32:00
4:52 AM,29.3,23.5,79,30.24,10.0,WSW,8.1,-,N/A,,Clear,250,2012-10-05 09:52:00
5:12 AM,29.3,24.1,81,30.23,10.0,West,9.2,-,N/A,,Clear,260,2012-10-05 10:12:00
5:32 AM,29.3,24.4,82,30.23,10.0,West,9.2,-,N/A,,Clear,260,2012-10-05 10:32:00
5:52 AM,29.1,24.3,82,30.23,10.0,West,9.2,-,N/A,,Clear,260,2012-10-05 10:52:00
6:12 AM,29.3,24.8,83,30.23,10.0,West,10.4,-,N/A,,Clear,260,2012-10-05 11:12:00
6:32 AM,30.7,25.2,80,30.23,10.0,West,11.5,-,N/A,,Clear,270,2012-10-05 11:32:00
6:52 AM,30.7,25.0,79,30.23,10.0,West,12.7,-,N/A,,Clear,270,2012-10-05 11:52:00
7:13 AM,30.6,24.8,79,30.23,10.0,West,13.8,-,N/A,,Clear,270,2012-10-05 12:13:00
7:32 AM,30.2,24.4,79,30.23,10.0,West,13.8,-,N/A,,Clear,270,2012-10-05 12:32:00
7:52 AM,30.2,24.4,79,30.23,10.0,West,13.8,-,N/A,,Clear,270,2012-10-05 12:52:00
8:12 AM,31.5,24.6,76,30.24,10.0,West,16.1,-,N/A,,Clear,260,2012-10-05 13:12:00
8:32 AM,32.2,24.8,74,30.25,10.0,West,17.3,21.9,N/A,,Clear,270,2012-10-05 13:32:00
8:52 AM,33.6,24.8,70,30.26,10.0,West,18.4,23.0,N/A,,Clear,270,2012-10-05 13:52:00
9:32 AM,34.9,23.7,64,30.26,10.0,West,20.7,26.5,N/A,,Clear,280,2012-10-05 14:32:00
9:52 AM,36.0,23.7,61,30.26,10.0,WNW,20.7,28.8,N/A,,Clear,290,2012-10-05 14:52:00
10:12 AM,36.5,23.5,59,30.24,10.0,WNW,19.6,27.6,N/A,,Clear,290,2012-10-05 15:12:00
10:32 AM,37.4,23.7,58,30.24,10.0,WNW,17.3,27.6,N/A,,Clear,290,2012-10-05 15:32:00
10:52 AM,38.3,23.9,56,30.23,10.0,WNW,18.4,27.6,N/A,,Clear,290,2012-10-05 15:52:00
11:12 AM,38.5,23.7,55,30.23,10.0,WNW,15.0,20.7,N/A,,Clear,290,2012-10-05 16:12:00
11:33 AM,40.3,23.7,52,30.24,10.0,WNW,20.7,26.5,N/A,,Clear,290,2012-10-05 16:33:00
12:12 PM,42.6,23.7,47,30.23,10.0,WNW,16.1,25.3,N/A,,Clear,300,2012-10-05 17:12:00
12:32 PM,42.4,23.0,46,30.23,10.0,West,21.9,29.9,N/A,,Clear,280,2012-10-05 17:32:00
12:52 PM,43.3,23.5,46,30.23,10.0,WNW,19.6,28.8,N/A,,Clear,300,2012-10-05 17:52:00
1:12 PM,44.4,23.0,43,30.23,10.0,WNW,19.6,29.9,N/A,,Scattered Clouds,290,2012-10-05 18:12:00
1:33 PM,44.6,22.5,42,30.23,10.0,WNW,20.7,32.2,N/A,,Clear,300,2012-10-05 18:33:00
1:52 PM,45.3,23.0,41,30.23,10.0,West,24.2,31.1,N/A,,Clear,280,2012-10-05 18:52:00
2:12 PM,45.5,22.8,41,30.22,10.0,West,18.4,27.6,N/A,,Scattered Clouds,280,2012-10-05 19:12:00
2:32 PM,46.2,22.8,40,30.22,10.0,WNW,23.0,28.8,N/A,,Scattered Clouds,290,2012-10-05 19:32:00
2:52 PM,45.7,22.8,41,30.22,10.0,WNW,21.9,32.2,N/A,,Scattered Clouds,300,2012-10-05 19:52:00
3:12 PM,47.3,23.4,39,30.21,10.0,NW,21.9,28.8,N/A,,Mostly Cloudy,310,2012-10-05 20:12:00
3:32 PM,46.8,23.4,40,30.21,10.0,WNW,17.3,28.8,N/A,,Mostly Cloudy,300,2012-10-05 20:32:00
3:52 PM,45.3,23.7,43,30.21,10.0,NW,20.7,27.6,N/A,,Mostly Cloudy,310,2012-10-05 20:52:00
4:12 PM,45.3,23.5,42,30.21,10.0,NW,18.4,27.6,N/A,,Mostly Cloudy,310,2012-10-05 21:12:00
4:32 PM,44.2,23.9,45,30.21,10.0,NW,20.7,27.6,N/A,,Scattered Clouds,310,2012-10-05 21:32:00
4:52 PM,43.9,23.4,44,30.21,10.0,WNW,20.7,29.9,N/A,,Mostly Cloudy,300,2012-10-05 21:52:00
5:12 PM,43.7,23.2,44,30.21,10.0,WNW,18.4,28.8,N/A,,Overcast,300,2012-10-05 22:12:00
5:32 PM,43.3,23.4,45,30.22,10.0,NW,18.4,26.5,N/A,,Overcast,310,2012-10-05 22:32:00
5:52 PM,42.3,23.4,47,30.22,10.0,WNW,19.6,25.3,N/A,,Overcast,300,2012-10-05 22:52:00
6:12 PM,41.9,24.1,49,30.22,10.0,WNW,16.1,21.9,N/A,,Overcast,300,2012-10-05 23:12:00
6:32 PM,41.2,24.4,51,30.23,10.0,NW,18.4,23.0,N/A,,Overcast,310,2012-10-05 23:32:00
6:52 PM,40.6,24.3,52,30.23,10.0,NW,15.0,25.3,N/A,,Overcast,310,2012-10-05 23:52:00
7:12 PM,40.1,23.7,52,30.24,10.0,NW,17.3,24.2,N/A,,Overcast,310,2012-10-06 00:12:00
7:32 PM,40.1,23.9,52,30.24,10.0,NW,11.5,25.3,N/A,,Overcast,320,2012-10-06 00:32:00
7:52 PM,39.4,23.7,54,30.24,10.0,NW,16.1,24.2,N/A,,Overcast,310,2012-10-06 00:52:00
8:12 PM,39.2,23.9,54,30.25,10.0,NW,17.3,25.3,N/A,,Overcast,310,2012-10-06 01:12:00
8:32 PM,39.2,23.5,53,30.25,10.0,WNW,15.0,25.3,N/A,,Overcast,290,2012-10-06 01:32:00
8:52 PM,39.2,23.9,54,30.25,10.0,West,17.3,-,N/A,,Overcast,280,2012-10-06 01:52:00
9:12 PM,39.2,23.0,52,30.25,10.0,WNW,17.3,24.2,N/A,,Overcast,290,2012-10-06 02:12:00
9:32 PM,39.2,23.9,54,30.26,10.0,WNW,20.7,27.6,N/A,,Overcast,300,2012-10-06 02:32:00
9:52 PM,38.8,24.4,56,30.26,10.0,WNW,19.6,24.2,N/A,,Overcast,300,2012-10-06 02:52:00
10:12 PM,38.3,25.0,59,30.26,10.0,WNW,17.3,26.5,N/A,,Overcast,300,2012-10-06 03:12:00
10:32 PM,38.3,26.1,61,30.26,10.0,NW,16.1,21.9,N/A,,Overcast,310,2012-10-06 03:32:00
10:52 PM,36.7,25.9,65,30.26,10.0,NW,12.7,20.7,N/A,,Mostly Cloudy,310,2012-10-06 03:52:00
11:32 PM,36.7,26.4,66,30.26,10.0,NW,17.3,26.5,N/A,,Overcast,310,2012-10-06 04:32:00
11:52 PM,35.2,26.2,70,30.26,10.0,NW,16.1,21.9,N/A,,Mostly Cloudy,310,2012-10-06 04:52:00